When you browse on this site, cookies collect data to enhance your experience and personalize the content and advertising you see.
Visit our Privacy Policy to learn more. By continuing to use the site, you agree to this use of cookies and data.
  • In Austria
  • List of Countries
  • For 7 days
  • Water Temperature
  • Satellite Maps
  • Weather Map
  • News
  • Weather Widgets
  • user-avatar
    Login

    Hourly Weather Rohy

    Today, 24 April, Wednesday

    Time Temperature Precipitation Wind Pressure Humidity
    00:00 +11°C° 0 mm 1 mps 750 mmHg 53%
    01:00 +10°C° 0 mm 1 mps 750 mmHg 55%
    02:00 +9°C° 0 mm 1 mps 750 mmHg 57%
    03:00 +9°C° 0 mm 1 mps 750 mmHg 58%
    04:00 +9°C° 0 mm 1 mps 750 mmHg 59%
    05:00 +7°C° 0 mm 0 mps 750 mmHg 60%
    06:00 +9°C° 0 mm 0 mps 751 mmHg 56%
    07:00 +12°C° 0 mm 1 mps 751 mmHg 51%
    08:00 +14°C° 0 mm 1 mps 751 mmHg 46%
    09:00 +15°C° 0 mm 2 mps 751 mmHg 41%
    10:00 +17°C° 0 mm 3 mps 751 mmHg 36%
    11:00 +18°C° 0 mm 4 mps 751 mmHg 31%
    12:00 +19°C° 0 mm 4 mps 751 mmHg 30%
    13:00 +19°C° 0 mm 4 mps 751 mmHg 30%
    14:00 +20°C° 0 mm 4 mps 751 mmHg 30%
    15:00 +19°C° 0 mm 3 mps 751 mmHg 32%
    16:00 +19°C° 0 mm 3 mps 750 mmHg 34%
    17:00 +19°C° 0 mm 3 mps 750 mmHg 35%
    18:00 +17°C° 0 mm 3 mps 750 mmHg 40%
    19:00 +14°C° 0 mm 3 mps 750 mmHg 45%
    20:00 +13°C° 0 mm 2 mps 750 mmHg 50%
    21:00 +13°C° 0 mm 2 mps 750 mmHg 53%
    22:00 +12°C° 0 mm 2 mps 750 mmHg 56%
    23:00 +10°C° 0 mm 2 mps 750 mmHg 60%

    Tomorrow, 25 April, Thursday

    Time Temperature Precipitation Wind Pressure Humidity
    00:00 +10°C° 0 mm 2 mps 750 mmHg 60%
    01:00 +9°C° 0 mm 2 mps 750 mmHg 61%
    02:00 +10°C° 0 mm 1 mps 750 mmHg 62%
    03:00 +9°C° 0 mm 1 mps 750 mmHg 63%
    04:00 +8°C° 0 mm 2 mps 750 mmHg 64%
    05:00 +8°C° 0 mm 2 mps 750 mmHg 65%
    06:00 +10°C° 0 mm 2 mps 750 mmHg 61%
    07:00 +12°C° 0 mm 2 mps 750 mmHg 58%
    08:00 +13°C° 0 mm 3 mps 751 mmHg 54%
    09:00 +15°C° 0 mm 4 mps 751 mmHg 50%
    10:00 +17°C° 0 mm 4 mps 751 mmHg 46%
    11:00 +17°C° 0 mm 5 mps 751 mmHg 42%
    12:00 +19°C° 0 mm 5 mps 750 mmHg 40%
    13:00 +20°C° 0 mm 5 mps 750 mmHg 39%
    14:00 +20°C° 0 mm 5 mps 749 mmHg 38%
    15:00 +20°C° 0 mm 5 mps 749 mmHg 39%
    16:00 +20°C° 0 mm 5 mps 749 mmHg 41%
    17:00 +19°C° 0 mm 4 mps 748 mmHg 42%
    18:00 +18°C° 0 mm 4 mps 748 mmHg 47%
    19:00 +16°C° 0 mm 3 mps 748 mmHg 51%
    20:00 +13°C° 0 mm 3 mps 748 mmHg 56%
    21:00 +13°C° 0 mm 3 mps 748 mmHg 56%
    22:00 +13°C° 0 mm 2 mps 748 mmHg 56%
    23:00 +12°C° 0 mm 2 mps 748 mmHg 56%

    Day after tomorrow, 26 April, Friday

    Time Temperature Precipitation Wind Pressure Humidity
    00:00 +12°C° 0 mm 2 mps 748 mmHg 59%
    01:00 +10°C° 0 mm 2 mps 748 mmHg 62%
    02:00 +10°C° 0 mm 2 mps 747 mmHg 64%
    03:00 +9°C° 0 mm 2 mps 747 mmHg 66%
    04:00 +9°C° 0 mm 2 mps 747 mmHg 68%
    05:00 +8°C° 0 mm 2 mps 747 mmHg 70%
    06:00 +9°C° 0 mm 2 mps 747 mmHg 65%
    07:00 +11°C° 0 mm 3 mps 747 mmHg 60%
    08:00 +12°C° 0 mm 3 mps 747 mmHg 56%
    09:00 +13°C° 0 mm 3 mps 747 mmHg 50%
    10:00 +15°C° 0 mm 4 mps 747 mmHg 45%
    11:00 +17°C° 0 mm 4 mps 747 mmHg 40%
    12:00 +17°C° 0 mm 5 mps 746 mmHg 39%
    13:00 +19°C° 0 mm 5 mps 746 mmHg 37%
    14:00 +20°C° 0 mm 5 mps 746 mmHg 36%
    15:00 +20°C° 0 mm 5 mps 745 mmHg 38%
    16:00 +19°C° 0 mm 4 mps 745 mmHg 40%
    17:00 +19°C° 0 mm 4 mps 744 mmHg 42%
    18:00 +18°C° 0 mm 4 mps 744 mmHg 48%
    19:00 +15°C° 0 mm 4 mps 744 mmHg 53%
    20:00 +13°C° 0 mm 3 mps 744 mmHg 59%
    21:00 +13°C° 0 mm 4 mps 744 mmHg 61%
    22:00 +12°C° 0 mm 4 mps 744 mmHg 64%
    23:00 +12°C° 0 mm 4 mps 744 mmHg 66%

    27 April, Saturday

    Time Temperature Precipitation Wind Pressure Humidity
    00:00 +11°C° 0 mm 4 mps 744 mmHg 67%
    01:00 +10°C° 0 mm 3 mps 743 mmHg 69%
    02:00 +10°C° 0 mm 3 mps 743 mmHg 70%
    03:00 +9°C° 0 mm 3 mps 743 mmHg 71%
    04:00 +9°C° 0 mm 3 mps 743 mmHg 71%
    05:00 +7°C° 0 mm 4 mps 742 mmHg 71%
    06:00 +10°C° 0 mm 4 mps 742 mmHg 66%
    07:00 +12°C° 0 mm 5 mps 742 mmHg 62%
    08:00 +14°C° 0 mm 6 mps 742 mmHg 57%
    09:00 +15°C° 0 mm 6 mps 742 mmHg 54%
    10:00 +17°C° 0 mm 7 mps 742 mmHg 50%
    11:00 +18°C° 0 mm 7 mps 742 mmHg 47%
    12:00 +20°C° 0 mm 7 mps 741 mmHg 47%
    13:00 +21°C° 0 mm 7 mps 741 mmHg 46%
    14:00 +21°C° 0 mm 6 mps 740 mmHg 45%
    15:00 +21°C° 0 mm 6 mps 740 mmHg 47%
    16:00 +21°C° 0 mm 6 mps 740 mmHg 48%
    17:00 +21°C° 0 mm 5 mps 739 mmHg 50%
    18:00 +19°C° 0 mm 5 mps 739 mmHg 54%
    19:00 +18°C° 0 mm 4 mps 739 mmHg 59%
    20:00 +15°C° 0 mm 4 mps 739 mmHg 64%
    21:00 +14°C° 0 mm 4 mps 739 mmHg 64%
    22:00 +14°C° 0 mm 4 mps 739 mmHg 65%
    23:00 +13°C° 0 mm 4 mps 739 mmHg 65%

    28 April, Sunday

    Time Temperature Precipitation Wind Pressure Humidity
    00:00 +12°C° 0 mm 4 mps 739 mmHg 68%
    01:00 +11°C° 0 mm 3 mps 739 mmHg 71%
    02:00 +10°C° 0 mm 3 mps 738 mmHg 73%
    03:00 +10°C° 0 mm 3 mps 738 mmHg 73%
    04:00 +9°C° 0 mm 3 mps 738 mmHg 74%
    05:00 +9°C° 0 mm 3 mps 738 mmHg 74%
    06:00 +10°C° 0 mm 3 mps 738 mmHg 68%
    07:00 +12°C° 0 mm 3 mps 738 mmHg 62%
    08:00 +13°C° 0 mm 4 mps 738 mmHg 57%
    09:00 +15°C° 0 mm 4 mps 738 mmHg 50%
    10:00 +18°C° 0 mm 4 mps 738 mmHg 44%
    11:00 +20°C° 0 mm 4 mps 738 mmHg 37%
    12:00 +21°C° 0 mm 4 mps 738 mmHg 36%
    13:00 +21°C° 0 mm 4 mps 738 mmHg 34%
    14:00 +22°C° 0 mm 4 mps 737 mmHg 32%
    15:00 +22°C° 0 mm 3 mps 737 mmHg 34%
    16:00 +22°C° 0 mm 3 mps 737 mmHg 36%
    17:00 +23°C° 0 mm 2 mps 737 mmHg 37%
    18:00 +20°C° 0 mm 2 mps 737 mmHg 43%
    19:00 +18°C° 0 mm 2 mps 737 mmHg 48%
    20:00 +16°C° 0 mm 2 mps 737 mmHg 53%
    21:00 +15°C° 0 mm 2 mps 737 mmHg 56%
    22:00 +14°C° 0 mm 2 mps 737 mmHg 60%
    23:00 +13°C° 0 mm 2 mps 737 mmHg 63%

    29 April, Monday

    Time Temperature Precipitation Wind Pressure Humidity
    00:00 +13°C° 0 mm 2 mps 737 mmHg 63%
    01:00 +12°C° 0 mm 2 mps 737 mmHg 63%
    02:00 +12°C° 0 mm 2 mps 737 mmHg 62%
    03:00 +11°C° 0 mm 1 mps 737 mmHg 65%
    04:00 +11°C° 0 mm 1 mps 737 mmHg 68%
    05:00 +10°C° 0 mm 1 mps 737 mmHg 70%
    06:00 +12°C° 0 mm 1 mps 738 mmHg 66%
    07:00 +14°C° 0 mm 1 mps 738 mmHg 62%
    08:00 +16°C° 0 mm 1 mps 738 mmHg 58%
    09:00 +18°C° 0 mm 1 mps 738 mmHg 54%
    10:00 +20°C° 0 mm 1 mps 739 mmHg 50%
    11:00 +20°C° 0 mm 2 mps 739 mmHg 46%
    12:00 +21°C° 0 mm 2 mps 739 mmHg 45%
    13:00 +21°C° 0 mm 2 mps 739 mmHg 45%
    14:00 +23°C° 0 mm 2 mps 739 mmHg 44%
    15:00 +20°C° 0.1 mm 4 mps 739 mmHg 54%
    16:00 +17°C° 0.1 mm 6 mps 739 mmHg 64%
    17:00 +15°C° 0.1 mm 8 mps 739 mmHg 74%
    18:00 +13°C° 0.1 mm 8 mps 739 mmHg 76%
    19:00 +11°C° 0.1 mm 7 mps 739 mmHg 77%
    20:00 +9°C° 0.1 mm 7 mps 740 mmHg 79%
    21:00 +9°C° 0.1 mm 7 mps 740 mmHg 80%
    22:00 +8°C° 0.1 mm 6 mps 740 mmHg 81%
    23:00 +8°C° 0.1 mm 6 mps 740 mmHg 82%
    Show more